Tracking 33744 objects as of 12-Apr-2026
HD Live streaming from Space Station
objects crossing your sky now

STARLINK-5199

Track STARLINK-5199 now!
10-day predictions
STARLINK-5199 is classified as:


NORAD ID: 54201
Int'l Code: 2022-141AW
Perigee: 546.1 km
Apogee: 547.8 km
Inclination: 53.2 °
Period: 95.4 minutes
Semi major axis: 6917 km
RCS: Unknown
Launch date: October 28, 2022
Source: United States (US)
Launch site: AIR FORCE WESTERN TEST RANGE (AFWTR)
Your satellite tracking list
Your tracking list is empty




NASA's NSSDC Master Catalog

Two Line Element Set (TLE):
1 54201U 22141AW  26102.44423182 -.00000128  00000-0  10025-4 0  9995
2 54201  53.2183 202.5862 0001238  96.3664 263.7470 15.08816339191092
Source of the keplerian elements: AFSPC